Location: Sobotiste
(48.7170°N, 17.4000°E)
Time: 09:34:29
(UTC+02:00)

YUBILEINY - Pass Details

Date: 21 March 2026
Orbit: 1477 x 1509 km, 82.5° (Epoch: 17 April)

Event Time Altitude Azimuth Distance (km) Brightness Sun altitude
Rises 00:53:17 0° 351° (N) 4,620 ? -39.7°
Reaches altitude 10° 00:56:43 10° 2° (N) 3,633 ? -39.5°
Maximum altitude 01:04:10 30° 62° (ENE) 2,392 ? -39.1°
Enters shadow 01:10:22 14° 116° (ESE) 3,296 ? -38.7°
